• In Österreich
  • Länderverzeichnis
  • Für 7 Tage
  • Wassertemperatur
  • Satellitenkarten
  • Wetterkarte
  • News
  • Widgets
  • user-avatar
    Anmelden

    Stündliche Wetter Sofia

    Heute, 25 Februar, Sonntag

    Zeit Temperatur Niederschläge Wind Luftdruck Luftfeuchtigkeit
    00:00 -1°C° 0,1 mm 2 m/S 706 mmHg 87%
    01:00 -1°C° 0,1 mm 2 m/S 706 mmHg 86%
    02:00 -2°C° 0,1 mm 2 m/S 707 mmHg 85%
    03:00 -2°C° 0 mm 2 m/S 707 mmHg 84%
    04:00 -3°C° 0 mm 2 m/S 707 mmHg 83%
    05:00 -3°C° 0 mm 2 m/S 707 mmHg 82%
    06:00 -3°C° 0 mm 2 m/S 707 mmHg 80%
    07:00 -3°C° 0 mm 2 m/S 707 mmHg 78%
    08:00 -3°C° 0 mm 2 m/S 707 mmHg 76%
    09:00 -3°C° 0,1 mm 2 m/S 708 mmHg 72%
    10:00 -2°C° 0,1 mm 2 m/S 708 mmHg 69%
    11:00 -1°C° 0,1 mm 2 m/S 708 mmHg 65%
    12:00 -2°C° 0,3 mm 2 m/S 708 mmHg 68%
    13:00 -2°C° 0,3 mm 2 m/S 708 mmHg 72%
    14:00 -2°C° 0,3 mm 2 m/S 708 mmHg 75%
    15:00 -2°C° 0,5 mm 2 m/S 708 mmHg 78%
    16:00 -3°C° 0,5 mm 2 m/S 707 mmHg 82%
    17:00 -3°C° 0,5 mm 2 m/S 707 mmHg 85%
    18:00 -3°C° 0,3 mm 2 m/S 707 mmHg 87%
    19:00 -4°C° 0,3 mm 2 m/S 707 mmHg 88%
    20:00 -4°C° 0,3 mm 2 m/S 707 mmHg 90%
    21:00 -4°C° 0,4 mm 2 m/S 707 mmHg 90%
    22:00 -4°C° 0,4 mm 2 m/S 707 mmHg 91%
    23:00 -4°C° 0,4 mm 2 m/S 707 mmHg 91%

    Morgen, 26 Februar, Montag

    Zeit Temperatur Niederschläge Wind Luftdruck Luftfeuchtigkeit
    00:00 -6°C° 0,4 mm 3 m/S 706 mmHg 91%
    01:00 -6°C° 0,4 mm 3 m/S 706 mmHg 92%
    02:00 -6°C° 0,4 mm 3 m/S 706 mmHg 92%
    03:00 -6°C° 0,6 mm 3 m/S 705 mmHg 92%
    04:00 -6°C° 0,6 mm 3 m/S 705 mmHg 92%
    05:00 -7°C° 0,6 mm 4 m/S 704 mmHg 92%
    06:00 -8°C° 0,9 mm 4 m/S 704 mmHg 92%
    07:00 -8°C° 0,9 mm 4 m/S 703 mmHg 93%
    08:00 -8°C° 0,9 mm 4 m/S 703 mmHg 93%
    09:00 -8°C° 1,2 mm 4 m/S 703 mmHg 93%
    10:00 -8°C° 1,2 mm 4 m/S 703 mmHg 93%
    11:00 -8°C° 1,2 mm 4 m/S 703 mmHg 92%
    12:00 -8°C° 0,9 mm 4 m/S 702 mmHg 92%
    13:00 -9°C° 0,9 mm 4 m/S 702 mmHg 91%
    14:00 -9°C° 0,9 mm 4 m/S 702 mmHg 91%
    15:00 -8°C° 0,5 mm 3 m/S 702 mmHg 91%
    16:00 -9°C° 0,5 mm 3 m/S 702 mmHg 92%
    17:00 -9°C° 0,5 mm 3 m/S 702 mmHg 92%
    18:00 -10°C° 0,4 mm 3 m/S 702 mmHg 93%
    19:00 -9°C° 0,4 mm 2 m/S 702 mmHg 93%
    20:00 -10°C° 0,4 mm 2 m/S 703 mmHg 94%
    21:00 -10°C° 0,4 mm 2 m/S 703 mmHg 94%
    22:00 -10°C° 0,4 mm 2 m/S 703 mmHg 94%
    23:00 -10°C° 0,4 mm 2 m/S 703 mmHg 94%

    übermorgen, 27 Februar, Dienstag

    Zeit Temperatur Niederschläge Wind Luftdruck Luftfeuchtigkeit
    00:00 -10°C° 0,2 mm 2 m/S 703 mmHg 94%
    01:00 -9°C° 0,2 mm 1 m/S 702 mmHg 94%
    02:00 -9°C° 0,2 mm 1 m/S 702 mmHg 94%
    03:00 -10°C° 0,1 mm 1 m/S 702 mmHg 94%
    04:00 -10°C° 0,1 mm 1 m/S 702 mmHg 94%
    05:00 -10°C° 0,1 mm 1 m/S 702 mmHg 94%
    06:00 -10°C° 0,2 mm 1 m/S 702 mmHg 93%
    07:00 -9°C° 0,2 mm 1 m/S 702 mmHg 93%
    08:00 -9°C° 0,2 mm 1 m/S 703 mmHg 93%
    09:00 -7°C° 0,1 mm 1 m/S 703 mmHg 90%
    10:00 -6°C° 0,1 mm 1 m/S 703 mmHg 88%
    11:00 -3°C° 0,1 mm 1 m/S 703 mmHg 86%
    12:00 -2°C° 0,1 mm 1 m/S 703 mmHg 85%
    13:00 -2°C° 0,1 mm 1 m/S 703 mmHg 85%
    14:00 -1°C° 0,1 mm 1 m/S 703 mmHg 85%
    15:00 -1°C° 0,1 mm 1 m/S 704 mmHg 86%
    16:00 -1°C° 0,1 mm 1 m/S 704 mmHg 87%
    17:00 -2°C° 0,1 mm 1 m/S 704 mmHg 88%
    18:00 -3°C° 0,2 mm 1 m/S 705 mmHg 90%
    19:00 -4°C° 0,2 mm 1 m/S 705 mmHg 91%
    20:00 -6°C° 0,2 mm 1 m/S 705 mmHg 92%
    21:00 -6°C° 0,1 mm 1 m/S 706 mmHg 92%
    22:00 -6°C° 0,1 mm 1 m/S 706 mmHg 92%
    23:00 -7°C° 0,1 mm 1 m/S 706 mmHg 92%

    28 Februar, Mittwoch

    Zeit Temperatur Niederschläge Wind Luftdruck Luftfeuchtigkeit
    00:00 -7°C° 0,1 mm 1 m/S 706 mmHg 92%
    01:00 -7°C° 0,1 mm 1 m/S 706 mmHg 92%
    02:00 -7°C° 0,1 mm 1 m/S 706 mmHg 92%
    03:00 -7°C° 0,1 mm 1 m/S 706 mmHg 93%
    04:00 -7°C° 0,1 mm 1 m/S 706 mmHg 93%
    05:00 -7°C° 0,1 mm 1 m/S 706 mmHg 93%
    06:00 -8°C° 0 mm 1 m/S 706 mmHg 92%
    07:00 -8°C° 0 mm 1 m/S 706 mmHg 92%
    08:00 -8°C° 0 mm 1 m/S 707 mmHg 92%
    09:00 -8°C° 0 mm 2 m/S 707 mmHg 90%
    10:00 -7°C° 0 mm 2 m/S 707 mmHg 87%
    11:00 -5°C° 0 mm 2 m/S 708 mmHg 85%
    12:00 -5°C° 0 mm 2 m/S 708 mmHg 84%
    13:00 -4°C° 0 mm 2 m/S 708 mmHg 83%
    14:00 -4°C° 0 mm 2 m/S 708 mmHg 82%
    15:00 -4°C° 0 mm 2 m/S 708 mmHg 83%
    16:00 -5°C° 0 mm 2 m/S 708 mmHg 84%
    17:00 -5°C° 0 mm 2 m/S 709 mmHg 85%
    18:00 -7°C° 0 mm 2 m/S 709 mmHg 87%
    19:00 -8°C° 0 mm 1 m/S 709 mmHg 89%
    20:00 -10°C° 0 mm 1 m/S 710 mmHg 91%
    21:00 -10°C° 0 mm 1 m/S 710 mmHg 91%
    22:00 -11°C° 0 mm 1 m/S 711 mmHg 90%
    23:00 -11°C° 0 mm 1 m/S 711 mmHg 89%

    1 März, Donnerstag

    Zeit Temperatur Niederschläge Wind Luftdruck Luftfeuchtigkeit
    00:00 -11°C° 0 mm 1 m/S 711 mmHg 88%
    01:00 -12°C° 0 mm 1 m/S 712 mmHg 87%
    02:00 -12°C° 0 mm 1 m/S 712 mmHg 86%
    03:00 -12°C° 0 mm 1 m/S 712 mmHg 85%
    04:00 -12°C° 0 mm 1 m/S 712 mmHg 84%
    05:00 -12°C° 0 mm 1 m/S 712 mmHg 82%
    06:00 -12°C° 0 mm 1 m/S 712 mmHg 81%
    07:00 -11°C° 0 mm 1 m/S 712 mmHg 80%
    08:00 -10°C° 0 mm 1 m/S 713 mmHg 78%
    09:00 -8°C° 0 mm 1 m/S 713 mmHg 75%
    10:00 -4°C° 0 mm 1 m/S 713 mmHg 71%
    11:00 -1°C° 0 mm 1 m/S 713 mmHg 68%
    12:00 0°C° 0 mm 1 m/S 712 mmHg 69%
    13:00 +1°C° 0 mm 1 m/S 712 mmHg 71%
    14:00 +1°C° 0 mm 2 m/S 711 mmHg 72%
    15:00 +2°C° 0 mm 1 m/S 711 mmHg 75%
    16:00 +2°C° 0 mm 1 m/S 711 mmHg 77%
    17:00 +2°C° 0 mm 1 m/S 710 mmHg 79%
    18:00 +1°C° 0 mm 1 m/S 710 mmHg 81%
    19:00 -3°C° 0 mm 2 m/S 710 mmHg 82%
    20:00 -4°C° 0 mm 2 m/S 710 mmHg 83%
    21:00 -4°C° 0 mm 2 m/S 710 mmHg 84%
    22:00 -4°C° 0 mm 2 m/S 710 mmHg 85%
    23:00 -3°C° 0 mm 2 m/S 710 mmHg 85%

    2 März, Freitag

    Zeit Temperatur Niederschläge Wind Luftdruck Luftfeuchtigkeit
    00:00 -3°C° 0 mm 2 m/S 709 mmHg 86%
    01:00 -3°C° 0 mm 2 m/S 709 mmHg 86%
    02:00 -3°C° 0 mm 2 m/S 709 mmHg 87%
    03:00 -3°C° 0 mm 2 m/S 708 mmHg 87%
    04:00 -2°C° 0 mm 2 m/S 708 mmHg 88%
    05:00 -2°C° 0 mm 2 m/S 707 mmHg 88%
    06:00 -1°C° 0,1 mm 2 m/S 707 mmHg 89%
    07:00 +1°C° 0,1 mm 2 m/S 707 mmHg 90%
    08:00 +2°C° 0,1 mm 2 m/S 707 mmHg 90%
    09:00 +3°C° 0,1 mm 2 m/S 707 mmHg 92%
    10:00 +3°C° 0,1 mm 2 m/S 707 mmHg 93%
    11:00 +3°C° 0,1 mm 3 m/S 706 mmHg 95%
    12:00 +5°C° 0,1 mm 2 m/S 706 mmHg 95%
    13:00 +5°C° 0,1 mm 2 m/S 706 mmHg 95%
    14:00 +6°C° 0,1 mm 2 m/S 705 mmHg 95%
    15:00 +5°C° 0,1 mm 2 m/S 705 mmHg 96%
    16:00 +5°C° 0,1 mm 2 m/S 705 mmHg 96%
    17:00 +5°C° 0,1 mm 2 m/S 705 mmHg 97%
    18:00 +4°C° 0,2 mm 2 m/S 705 mmHg 96%
    19:00 +4°C° 0,2 mm 2 m/S 704 mmHg 96%
    20:00 +4°C° 0,2 mm 2 m/S 704 mmHg 95%
    21:00 +4°C° 0,3 mm 2 m/S 704 mmHg 94%
    22:00 +4°C° 0,3 mm 2 m/S 704 mmHg 94%
    23:00 +4°C° 0,3 mm 2 m/S 704 mmHg 93%
    Mehr zeigen